Rickenbacker, OH

3:33 PM EDT on March 23, 2017 (GMT -0400)
Rickenbacker International

Weather History for KLCK - October, 2012

Change the Weather History Date:

Saturday, October 20, 2012

  Actual Average Record
Temperature  
Mean Temperature 52 °F -  
Max Temperature 57 °F 61 °F 77 °F (2003)
Min Temperature 45 °F 42 °F 30 °F (2008)
Degree Days  
Heating Degree Days 14    
Growing Degree Days 2 (Base 50)    
Moisture  
Dew Point 40 °F    
Average Humidity 70    
Maximum Humidity 84    
Minimum Humidity 44    
Precipitation  
Precipitation 0.00 in - - ()
Sea Level Pressure  
Sea Level Pressure 29.82 in    
Wind  
Wind Speed 9 mph (SW)    
Max Wind Speed 17 mph    
Max Gust Speed 21 mph    
Visibility 10 miles    
Events Rain    
Averages and records for this station are not official NWS values.
T = Trace of Precipitation, MM = Missing Value Source: NWS Daily Summary

Daily Weather History Graph

Daily Weather History Graph

Search for Another Location

Airport or City:

Trip Planner

Search our weather history database for the weather conditions in past years. The results will help you decide how hot, cold, wet, or windy it might be!

Date:

Astronomy

Oct. 20, 2012 Rise Set
Actual Time 7:47 AM EDT 6:44 PM EDT
Civil Twilight 7:20 AM EDT 7:11 PM EDT
Nautical Twilight 6:48 AM EDT 7:43 PM EDT
Astronomical Twilight 6:17 AM EDT 8:14 PM EDT
Moon 1:22 PM EDT (10/20) 11:29 PM EDT (10/20)
Length of Visible Light 11h 51m
Length of Day
10h 56m
Waxing Crescent, 34% of the Moon is Illuminated
Oct 20
Waxing Crescent
Oct 21
First Quarter
Oct 29
Full
Nov 6
Last Quarter
Nov 13
New

Hourly Weather History & Observations

Time (EDT) Temp. Windchill Dew Point Humidity Pressure Visibility Wind Dir Wind Speed Gust Speed Precip Events Conditions
12:15 AM 48.2 °F - 43.0 °F 82% 29.70 in 10.0 mi SSW 8.1 mph - N/A   Overcast
12:35 AM 48.4 °F - 43.0 °F 82% 29.70 in 10.0 mi SSW 12.7 mph - N/A   Light Drizzle
12:55 AM 48.6 °F - 42.8 °F 80% 29.70 in 10.0 mi SW 9.2 mph - N/A   Overcast
1:15 AM 48.2 °F - 42.6 °F 81% 29.71 in 10.0 mi SSW 9.2 mph - N/A   Overcast
1:35 AM 48.2 °F - 42.6 °F 81% 29.71 in 10.0 mi SSW 8.1 mph - N/A   Overcast
1:55 AM 48.0 °F - 42.8 °F 82% 29.72 in 10.0 mi SSW 9.2 mph - N/A   Overcast
2:15 AM 48.2 °F - 42.6 °F 81% 29.72 in 10.0 mi SW 8.1 mph - N/A   Light Drizzle
2:35 AM 48.2 °F - 42.3 °F 80% 29.72 in 10.0 mi SW 8.1 mph - N/A   Overcast
2:55 AM 47.8 °F - 41.9 °F 80% 29.72 in 10.0 mi SW 8.1 mph 16.1 mph N/A   Overcast
3:15 AM 48.0 °F - 41.9 °F 79% 29.72 in 10.0 mi SW 9.2 mph - N/A   Overcast
3:35 AM 47.1 °F - 41.4 °F 80% 29.72 in 10.0 mi SW 6.9 mph - N/A   Mostly Cloudy
3:55 AM 46.4 °F 42.9 °F 41.0 °F 81% 29.72 in 10.0 mi SW 6.9 mph - N/A   Mostly Cloudy
4:15 AM 46.4 °F 41.9 °F 41.0 °F 81% 29.73 in 10.0 mi SW 9.2 mph - N/A   Scattered Clouds
4:35 AM 46.2 °F 41.7 °F 40.8 °F 81% 29.73 in 10.0 mi SSW 9.2 mph - N/A   Mostly Cloudy
4:55 AM 46.6 °F - 41.2 °F 81% 29.73 in 10.0 mi SW 9.2 mph - N/A   Overcast
5:15 AM 46.6 °F - 41.2 °F 81% 29.74 in 10.0 mi SW 8.1 mph - N/A   Overcast
5:35 AM 46.9 °F - 41.5 °F 81% 29.74 in 10.0 mi SSW 10.4 mph - N/A   Overcast
5:55 AM 47.3 °F - 41.5 °F 80% 29.74 in 10.0 mi SSW 11.5 mph - N/A   Overcast
6:15 AM 47.5 °F - 41.5 °F 80% 29.75 in 10.0 mi SSW 11.5 mph - N/A   Overcast
6:35 AM 47.3 °F - 41.5 °F 80% 29.75 in 10.0 mi SSW 10.4 mph - N/A   Overcast
6:55 AM 47.3 °F - 41.7 °F 81% 29.75 in 10.0 mi SW 9.2 mph - N/A   Overcast
7:15 AM 47.5 °F - 41.9 °F 81% 29.75 in 10.0 mi SSW 9.2 mph - N/A   Overcast
7:35 AM 47.7 °F - 41.9 °F 80% 29.75 in 10.0 mi SSW 10.4 mph - N/A   Overcast
7:55 AM 47.7 °F - 42.1 °F 81% 29.76 in 10.0 mi SSW 10.4 mph - N/A   Overcast
8:15 AM 47.8 °F - 42.1 °F 80% 29.76 in 10.0 mi SSW 8.1 mph - N/A   Overcast
8:35 AM 48.0 °F - 42.3 °F 80% 29.77 in 7.0 mi SW 8.1 mph - N/A Rain Rain
8:55 AM 48.0 °F - 42.6 °F 82% 29.78 in 5.0 mi SW 4.6 mph - N/A Rain Light Rain
9:15 AM 47.8 °F - 43.0 °F 83% 29.78 in 4.0 mi SW 5.8 mph - N/A Rain Light Rain
9:35 AM 47.8 °F - 43.2 °F 84% 29.79 in 3.0 mi West 5.8 mph - N/A Rain Rain
9:55 AM 47.5 °F - 43.0 °F 84% 29.79 in 10.0 mi West 6.9 mph - N/A   Overcast
10:15 AM 48.6 °F - 43.5 °F 83% 29.80 in 10.0 mi WSW 6.9 mph - N/A   Overcast
10:35 AM 49.8 °F - 44.1 °F 81% 29.81 in 10.0 mi WSW 9.2 mph - N/A   Overcast
10:55 AM 50.2 °F - 43.9 °F 79% 29.81 in 10.0 mi WSW 8.1 mph 17.3 mph N/A   Overcast
11:15 AM 50.9 °F - 43.9 °F 77% 29.81 in 10.0 mi WSW 13.8 mph - N/A   Overcast
11:35 AM 51.6 °F - 43.3 °F 73% 29.82 in 10.0 mi WSW 12.7 mph - N/A   Scattered Clouds
11:55 AM 54.0 °F - 43.5 °F 68% 29.81 in 10.0 mi WSW 12.7 mph 20.7 mph N/A   Mostly Cloudy
12:15 PM 54.3 °F - 42.1 °F 63% 29.82 in 10.0 mi WSW 16.1 mph 20.7 mph N/A   Overcast
12:35 PM 55.4 °F - 41.0 °F 58% 29.82 in 10.0 mi West 17.3 mph 20.7 mph N/A   Overcast
12:55 PM 55.2 °F - 39.7 °F 56% 29.82 in 10.0 mi WSW 13.8 mph 20.7 mph N/A   Overcast
1:15 PM 54.7 °F - 38.7 °F 55% 29.82 in 10.0 mi West 9.2 mph - N/A   Overcast
1:35 PM 54.1 °F - 38.5 °F 55% 29.83 in 10.0 mi West 13.8 mph - N/A   Overcast
1:55 PM 54.5 °F - 38.8 °F 56% 29.83 in 10.0 mi West 12.7 mph 19.6 mph N/A   Overcast
2:15 PM 55.2 °F - 37.9 °F 52% 29.83 in 10.0 mi West 12.7 mph 18.4 mph N/A   Overcast
2:35 PM 55.6 °F - 38.5 °F 53% 29.83 in 10.0 mi WNW 9.2 mph - N/A   Overcast
2:55 PM 57.4 °F - 36.0 °F 45% 29.83 in 10.0 mi West 13.8 mph 18.4 mph N/A   Overcast
3:15 PM 56.1 °F - 35.8 °F 46% 29.84 in 10.0 mi West 12.7 mph - N/A   Overcast
3:35 PM 56.8 °F - 36.1 °F 46% 29.84 in 10.0 mi West 15.0 mph 20.7 mph N/A   Overcast
3:55 PM 56.7 °F - 35.4 °F 45% 29.84 in 10.0 mi West 16.1 mph 20.7 mph N/A   Overcast
4:15 PM 56.5 °F - 34.7 °F 44% 29.85 in 10.0 mi West 13.8 mph 18.4 mph N/A   Overcast
4:35 PM 56.7 °F - 34.9 °F 44% 29.86 in 10.0 mi West 11.5 mph 20.7 mph N/A   Overcast
4:55 PM 56.5 °F - 35.2 °F 45% 29.86 in 10.0 mi West 10.4 mph 16.1 mph N/A   Overcast
5:15 PM 57.0 °F - 35.4 °F 44% 29.87 in 10.0 mi West 10.4 mph 19.6 mph N/A   Overcast
5:35 PM 56.3 °F - 35.6 °F 46% 29.87 in 10.0 mi West 10.4 mph - N/A   Overcast
5:55 PM 56.1 °F - 35.1 °F 45% 29.88 in 10.0 mi West 6.9 mph - N/A   Overcast
6:15 PM 55.6 °F - 35.1 °F 46% 29.88 in 10.0 mi West 6.9 mph - N/A   Overcast
6:35 PM 54.3 °F - 35.4 °F 49% 29.89 in 10.0 mi WSW 4.6 mph - N/A   Scattered Clouds
6:55 PM 52.0 °F - 35.8 °F 54% 29.90 in 10.0 mi West 4.6 mph - N/A   Scattered Clouds
7:15 PM 51.6 °F - 36.1 °F 56% 29.91 in 10.0 mi WSW 5.8 mph - N/A   Mostly Cloudy
7:35 PM 50.9 °F - 37.2 °F 59% 29.91 in 10.0 mi WSW 4.6 mph - N/A   Overcast
7:55 PM 50.4 °F - 37.0 °F 60% 29.92 in 10.0 mi SW 5.8 mph - N/A   Overcast
8:15 PM 48.9 °F - 37.8 °F 65% 29.92 in 10.0 mi SW 4.6 mph - N/A   Overcast
8:35 PM 48.9 °F - 40.5 °F 73% 29.93 in 10.0 mi SW 4.6 mph - N/A   Overcast
8:55 PM 49.1 °F - 41.4 °F 75% 29.93 in 10.0 mi SW 4.6 mph - N/A   Overcast
9:15 PM 49.1 °F - 41.9 °F 76% 29.94 in 10.0 mi SW 4.6 mph - N/A   Overcast
9:35 PM 48.6 °F - 41.9 °F 78% 29.94 in 10.0 mi SW 3.5 mph - N/A   Overcast
9:55 PM 48.2 °F - 41.9 °F 79% 29.95 in 10.0 mi SW 3.5 mph - N/A   Overcast
10:15 PM 47.8 °F - 41.9 °F 80% 29.95 in 10.0 mi SSW 4.6 mph - N/A   Overcast
10:35 PM 47.7 °F - 41.5 °F 79% 29.97 in 10.0 mi SSW 3.5 mph - N/A   Overcast
10:55 PM 47.5 °F - 41.7 °F 80% 29.97 in 10.0 mi SSW 4.6 mph - N/A   Overcast
11:15 PM 47.1 °F - 41.4 °F 80% 29.98 in 10.0 mi South 3.5 mph - N/A   Mostly Cloudy
11:35 PM 46.0 °F 43.9 °F 40.5 °F 81% 29.98 in 10.0 mi South 4.6 mph - N/A   Overcast
11:55 PM 45.5 °F 42.5 °F 40.1 °F 81% 29.98 in 10.0 mi South 5.8 mph - N/A   Mostly Cloudy